EDT,Max TemperatureF,Mean TemperatureF,Min TemperatureF,Max Dew PointF,MeanDew PointF,Min DewpointF,Max Humidity, Mean Humidity, Min Humidity, Max Sea Level PressureIn, Mean Sea Level PressureIn, Min Sea Level PressureIn, Max VisibilityMiles, Mean VisibilityMiles, Min VisibilityMiles, Max Wind SpeedMPH, Mean Wind SpeedMPH, Max Gust SpeedMPH,PrecipitationIn, CloudCover, Events, WindDirDegrees
2013-3-1,52,37,22,33,28,23,100,71,41,29.93,29.89,29.83,10.0,10.0,10.0,8,1,,0.00,5,,262
2013-3-2,48,40,32,36,31,19,100,73,49,29.93,29.88,29.83,10.0,10.0,10.0,14,3,22,0.00,7,Rain,332
2013-3-3,49,34,20,25,20,16,99,60,29,30.01,29.94,29.88,10.0,10.0,10.0,13,2,17,0.00,0,,300
2013-3-4,55,36,17,31,22,17,100,62,24,30.15,30.07,30.01,10.0,10.0,10.0,6,2,,0.00,0,,181
2013-3-5,55,41,31,47,39,29,100,86,70,30.07,29.87,29.66,10.0,8.8,0.2,20,2,28,0.00,6,Fog-Rain-Thunderstorm,316
2013-3-6,48,38,28,31,26,21,94,62,40,30.11,29.91,29.74,10.0,10.0,10.0,20,11,28,0.00,2,Snow,290
2013-3-7,59,40,22,32,28,22,100,69,35,30.23,30.16,30.11,10.0,10.0,10.0,8,2,,0.00,0,,184
2013-3-8,61,43,25,31,27,24,100,59,26,30.30,30.24,30.18,10.0,10.0,10.0,8,2,,0.00,0,,144
2013-3-9,63,44,26,36,30,26,96,61,30,30.34,30.27,30.22,10.0,10.0,10.0,7,1,,0.00,0,,132
2013-3-10,68,50,34,40,36,32,95,58,30,30.28,30.20,30.15,10.0,10.0,10.0,6,1,,0.00,0,,90
2013-3-11,65,54,43,56,48,38,100,79,58,30.16,30.00,29.82,10.0,9.1,3.0,10,2,17,0.00,7,Rain,122
2013-3-12,71,58,45,56,43,23,100,67,21,30.03,29.85,29.75,10.0,8.7,4.0,13,5,18,0.00,3,Rain,262
2013-3-13,58,44,29,34,26,20,100,54,28,30.17,30.07,30.02,10.0,10.0,10.0,16,7,29,0.00,1,,278
2013-3-14,54,38,23,25,21,14,99,52,26,30.31,30.21,30.15,10.0,10.0,10.0,12,4,,0.00,0,,6
2013-3-15,73,50,27,42,32,16,92,52,29,30.18,30.07,29.93,10.0,10.0,10.0,16,4,26,0.00,1,,235
2013-3-16,79,66,54,48,44,40,66,48,31,29.94,29.88,29.79,10.0,10.0,10.0,20,13,34,0.00,0,,235
2013-3-17,75,62,49,50,46,41,75,56,37,30.02,29.93,29.89,10.0,10.0,10.0,17,6,28,0.00,1,,218
2013-3-18,54,48,41,46,42,41,100,93,71,30.09,30.00,29.87,10.0,6.3,0.8,20,6,25,0.00,8,Rain-Thunderstorm,69
2013-3-19,68,54,41,49,33,21,100,58,20,30.06,29.95,29.86,10.0,6.4,0.2,20,4,30,0.00,3,Fog-Rain,290
2013-3-20,59,46,32,35,24,16,96,50,21,30.11,29.98,29.82,10.0,10.0,10.0,15,1,16,0.00,2,,248
2013-3-21,50,40,30,31,13,6,66,35,21,29.94,29.85,29.81,10.0,10.0,10.0,18,11,28,0.00,0,,286
2013-3-22,47,36,24,31,23,17,94,58,32,30.06,30.01,29.94,10.0,10.0,10.0,7,1,,0.00,6,,209
2013-3-23,51,45,39,48,41,31,100,89,65,30.03,29.96,29.87,10.0,8.6,2.5,5,1,,0.00,8,Rain,104
2013-3-24,47,44,42,45,44,42,100,97,87,29.89,29.66,29.55,10.0,7.6,1.2,17,6,25,0.00,8,Rain,65
2013-3-25,46,40,33,42,27,23,100,61,43,29.94,29.74,29.56,10.0,9.9,7.0,25,15,37,0.00,6,Rain,267
2013-3-26,50,39,28,27,23,21,84,58,36,30.19,30.03,29.92,10.0,10.0,10.0,13,6,20,0.00,3,,278
2013-3-27,58,39,21,28,23,16,100,60,21,30.27,30.21,30.14,10.0,10.0,10.0,12,2,18,0.00,0,,240
2013-3-28,64,44,23,29,23,16,100,56,16,30.31,30.24,30.15,10.0,10.0,10.0,13,3,17,0.00,0,,262
2013-3-29,59,42,24,41,30,25,100,63,29,30.34,30.27,30.21,10.0,10.0,10.0,16,2,18,0.00,4,Rain,332
2013-3-30,68,56,43,50,42,38,100,67,35,30.21,30.13,30.03,10.0,10.0,10.0,9,3,,0.00,4,Rain,137
2013-3-31,69,60,50,58,54,50,100,85,54,30.06,29.92,29.85,10.0,7.5,1.2,20,6,28,0.00,7,Rain,236